Location: Bathurst
(33.4193°S, 149.5775°E)
Time: 09:39:44
(UTC+10:00)

Vanguard 1 Rocket - Pass Details

Date: 23 June 2021
Orbit: 650 x 4226 km, 34.3° (Epoch: 02 August)

Event Time Altitude Azimuth Distance (km) Brightness Sun altitude
Rises 05:01:30 0° 332° (NNW) 8,150 12.1 -25.1°
Reaches altitude 10° 05:07:47 10° 340° (NNW) 7,330 11.9 -23.9°
Maximum altitude 05:30:10 38° 38° (NE) 5,091 11.6 -19.3°
Drops below altitude 10° 05:47:21 10° 97° (E) 5,808 12.5 -15.9°
Sets 05:51:27 0° 104° (ESE) 6,396 12.7 -15.1°
